Wind_Speed
22 20 15 12 12 13 13 11 9 7 6 6 7 8 8 8 8 7 6 5 4 4 4 6 8 9 11 12 12 12 12 13 13 14 14 14 15 15 16 17 17 17 15 10 8 7 4 3 5 4 4 3 2 1 0 1 3 5 5 3 4 5 5 5 4 3 3 5 4 4 6 7 6 7 9 10 10 11 13 17 19 20 20 20 20
24 23 19 16 15 15 15 14 13 12 12 10 9 9 9 9 9 8 7 7 6 7 9 11 11 10 11 11 11 12 12 12 13 14 15 16 16 16 18 19 19 20 18 14 12 10 8 8 8 7 6 5 4 4 3 5 5 6 7 7 7 7 7 7 6 4 3 4 4 5 6 7 7 7 7 7 7 11 14 17 19 20 19 19 18
25 25 24 22 20 19 18 18 18 18 19 18 17 16 16 15 15 14 12 11 10 10 11 10 8 7 7 8 9 9 9 10 11 13 15 17 18 19 20 20 19 20 19 18 15 13 11 11 10 9 8 8 8 8 6 6 6 7 9 10 10 10 8 6 5 4 4 5 6 6 6 6 5 6 7 6 8 12 15 17 19 19 19 17 14
26 26 25 24 23 22 22 22 21 22 22 22 21 20 20 19 18 16 14 12 10 9 9 7 6 4 3 3 4 4 6 7 9 12 14 16 18 20 21 20 19 19 19 18 17 13 10 10 10 9 10 10 10 8 6 5 6 7 8 9 9 9 8 4 3 4 5 6 7 7 7 6 5 7 8 9 11 13 16 18 18 18 17 14 13
27 26 25 24 24 23 22 21 21 20 20 20 20 19 18 16 14 13 11 9 7 5 4 4 3 3 2 1 2 2 4 4 7 11 13 15 17 19 20 20 19 18 16 17 18 12 7 9 9 8 9 10 9 8 5 3 5 6 7 8 8 7 6 4 5 6 7 7 8 8 8 8 8 9 10 11 12 14 16 17 18 17 14 12 14
28 28 25 22 21 20 19 18 17 17 16 15 14 14 12 11 9 8 7 5 4 2 1 1 1 2 1 1 1 3 3 4 5 8 12 13 15 17 18 19 18 16 14 15 17 12 7 8 8 7 7 7 7 5 2 2 5 6 7 9 8 7 6 6 7 8 8 8 9 9 8 9 9 10 10 11 12 14 15 16 16 14 12 14 17
29 29 27 24 22 19 17 16 14 13 11 10 9 8 7 7 6 6 5 4 2 1 1 2 3 3 2 2 1 3 3 4 4 6 9 11 13 16 17 17 15 12 10 12 14 13 10 9 8 7 5 4 4 3 2 3 5 6 6 7 8 8 8 8 9 9 9 9 9 9 8 9 9 10 10 11 13 14 15 15 13 11 13 16 18
29 29 28 26 24 23 20 18 15 13 10 9 8 7 6 6 5 4 3 3 2 2 2 3 4 3 3 3 1 2 3 4 4 5 8 9 10 13 15 15 14 8 7 10 13 14 11 9 8 6 3 3 3 3 3 5 5 5 6 7 8 9 9 8 9 9 9 8 7 9 9 10 9 9 10 11 12 13 13 12 11 13 15 17 20
28 28 27 26 24 23 22 21 18 16 13 12 11 9 8 7 6 5 4 4 4 4 4 5 5 4 3 4 3 3 4 5 5 5 7 8 9 11 13 14 13 7 3 7 11 12 9 6 7 6 3 3 4 1 0 3 2 2 6 7 8 10 9 7 9 9 9 7 5 7 10 10 9 10 11 11 11 12 11 10 12 14 16 19 21
26 27 26 25 23 22 21 20 19 17 16 15 14 13 12 10 8 6 5 5 6 6 7 7 6 5 5 5 4 4 5 5 6 6 6 7 9 10 11 13 13 8 4 5 7 8 6 5 8 8 4 3 5 4 4 1 3 2 3 6 8 9 9 7 8 10 9 7 6 8 11 11 10 10 10 9 10 10 9 12 14 16 18 20 21
26 26 26 24 23 22 21 20 18 17 16 16 16 16 15 14 12 9 8 7 7 7 7 7 7 7 6 5 4 4 4 4 5 6 5 7 10 9 9 10 11 9 6 4 3 5 5 6 6 6 4 2 3 3 3 2 3 2 3 4 6 8 9 7 7 9 9 8 9 10 11 11 10 9 8 9 9 9 11 13 15 17 19 21 21
27 26 25 24 22 21 20 19 19 18 18 18 18 18 18 17 15 13 12 10 9 8 8 8 9 9 9 7 5 4 3 4 5 6 6 9 10 10 9 8 8 9 7 5 2 2 3 4 4 3 2 2 0 1 2 3 3 4 5 5 5 7 8 6 7 9 9 9 9 10 10 10 9 7 8 9 9 11 13 15 16 18 20 21 22
28 27 26 24 22 22 21 20 19 20 20 20 19 19 20 19 17 15 14 13 12 11 10 11 12 11 9 6 5 5 5 5 6 7 7 8 9 9 9 8 7 7 7 7 4 2 1 2 2 2 3 2 2 2 3 4 4 5 6 6 6 7 7 6 7 10 9 9 10 10 9 8 7 7 9 10 11 13 14 16 18 19 20 21 21
28 27 26 25 24 23 22 22 22 22 22 22 22 21 22 20 18 16 15 13 12 12 12 14 13 10 6 4 5 5 5 6 5 4 4 7 7 6 6 8 8 7 8 9 6 4 3 2 2 3 4 3 4 3 4 4 5 7 7 6 6 6 6 6 9 10 9 9 9 8 8 8 8 9 11 12 13 14 15 17 18 19 19 20 20
28 27 27 26 24 24 23 23 23 23 24 24 24 24 24 22 20 19 18 15 14 14 15 16 14 9 4 3 6 4 3 3 3 1 2 3 4 4 5 8 9 8 9 11 7 5 5 3 2 4 4 4 4 3 3 4 5 7 7 6 5 5 6 8 10 10 9 9 9 8 8 8 10 12 13 14 15 15 16 17 18 18 19 19 18
27 27 27 26 25 25 25 24 24 23 22 23 24 24 23 23 22 21 21 18 15 16 15 15 12 8 3 2 4 3 1 1 2 2 1 0 1 3 5 7 8 8 9 11 11 9 6 2 3 5 5 4 2 1 3 5 5 6 5 3 3 5 8 10 10 9 9 9 9 9 9 10 13 14 14 15 15 16 16 16 17 18 18 17 18
27 27 27 26 26 26 26 25 23 22 21 21 22 23 22 22 22 21 21 18 16 15 13 13 11 8 5 4 4 3 3 3 3 2 3 3 4 5 7 8 8 10 11 12 13 12 9 6 5 5 6 4 1 3 4 5 5 5 3 2 3 6 9 11 9 8 9 9 9 9 11 14 15 15 15 15 15 16 15 16 16 17 17 17 19
27 27 27 26 26 26 27 26 24 22 20 20 20 21 21 21 22 20 19 18 17 15 13 13 10 8 9 7 5 5 3 2 3 2 5 6 7 8 11 11 11 11 11 10 11 13 12 11 9 7 6 3 2 3 4 4 4 3 2 2 5 7 10 10 8 9 9 9 10 11 14 16 16 16 16 15 15 15 15 15 16 16 17 18 21
28 28 26 25 25 26 26 26 26 23 21 20 19 20 19 20 22 21 19 19 17 15 14 13 10 9 11 10 8 7 3 1 2 2 3 6 8 10 14 13 13 11 9 7 9 13 14 14 13 10 7 3 2 2 3 2 3 3 2 5 6 8 10 8 8 9 9 10 12 14 15 16 16 16 15 14 14 14 14 15 15 16 18 20 21
28 28 27 25 24 24 25 26 27 25 23 20 19 19 19 20 22 22 21 20 19 16 15 14 14 13 12 12 9 5 3 2 3 3 3 5 7 12 16 15 16 12 9 10 13 16 16 15 14 11 9 6 4 4 5 5 5 2 5 7 7 8 8 8 9 10 10 13 14 15 16 16 16 15 14 14 13 13 13 14 15 17 19 20 21
27 28 28 26 24 23 24 25 26 26 24 22 21 20 20 22 23 23 23 23 22 20 19 18 17 15 13 12 8 5 3 1 4 4 4 3 3 11 16 17 17 14 10 16 19 19 18 17 14 12 10 8 7 8 8 6 2 4 6 7 7 6 6 9 10 11 13 14 15 16 16 16 15 14 13 12 12 13 14 14 15 18 19 20 22
27 27 27 27 24 23 22 23 24 25 25 24 23 22 22 23 24 25 25 25 25 23 22 21 21 18 15 12 7 3 2 3 3 3 4 5 7 11 15 16 15 13 11 16 19 19 19 17 15 12 9 9 10 11 8 3 2 4 6 5 5 6 9 11 11 13 14 15 16 16 16 15 15 13 12 11 12 13 14 14 16 18 20 21 22
27 27 27 27 26 24 23 22 23 23 24 24 24 24 24 25 25 26 26 26 26 25 24 24 24 22 17 13 8 6 6 7 5 6 9 10 11 13 16 17 14 11 13 17 19 20 19 17 14 11 10 11 12 10 6 4 4 4 3 3 5 9 11 12 13 14 15 16 16 15 15 15 13 12 11 11 13 13 13 14 16 19 20 21 22
27 26 26 27 26 25 24 23 22 22 23 23 24 24 24 25 26 26 27 27 27 26 26 26 28 26 20 14 11 11 11 11 9 11 13 13 14 15 16 16 13 13 15 18 20 20 20 18 16 15 15 15 13 9 6 5 4 2 2 5 9 11 13 13 14 15 16 16 16 15 14 13 12 11 11 12 13 13 13 14 17 19 20 21 22
26 26 26 26 26 26 25 24 23 22 23 23 22 23 24 25 26 27 28 29 29 28 28 29 30 28 22 17 16 14 12 12 12 13 13 13 14 14 13 14 15 16 17 19 20 20 21 20 20 19 18 15 12 9 5 3 2 3 7 10 12 14 15 14 15 16 16 16 15 14 13 12 12 11 11 12 12 13 13 15 17 19 20 21 21
26 26 26 26 26 26 26 25 24 24 23 22 22 22 24 25 27 28 29 30 30 30 30 32 32 28 23 20 19 16 15 15 15 15 15 15 16 16 16 17 17 17 18 19 20 20 20 20 19 18 16 12 9 6 4 4 6 8 11 13 15 16 16 15 15 16 16 15 14 13 12 12 12 11 11 11 12 13 14 15 17 19 20 21 21
27 26 26 25 26 26 26 25 25 25 24 23 22 22 24 26 27 29 30 32 32 32 33 35 34 29 25 23 21 20 20 21 20 19 19 19 20 20 20 20 20 20 19 20 19 19 19 18 16 15 12 10 8 7 7 8 10 12 14 16 17 18 16 16 16 16 15 13 13 12 12 12 12 11 11 11 12 13 14 15 17 18 20 20 21
27 26 25 25 25 25 25 26 26 25 25 24 24 23 25 27 28 30 31 33 34 35 36 38 37 31 29 26 25 24 24 23 23 22 21 21 21 22 23 23 23 22 21 21 20 19 18 17 15 14 12 11 11 11 11 12 13 16 17 18 18 18 16 16 16 15 14 12 12 12 12 12 11 11 10 11 11 12 13 15 16 18 19 20 21
27 26 26 25 25 25 25 26 26 26 25 25 25 25 26 28 29 30 32 34 35 36 38 40 39 34 32 29 28 27 26 24 23 23 22 22 22 23 23 24 24 23 22 21 21 20 19 18 16 15 14 14 13 14 14 16 17 18 19 19 18 17 16 16 15 14 12 11 11 11 11 11 11 10 10 10 11 12 13 14 16 18 19 20 20
27 26 25 25 24 24 24 25 26 26 25 25 25 26 28 29 29 31 33 34 36 37 39 41 40 36 34 31 30 28 26 25 24 24 24 23 22 23 23 24 24 24 23 22 22 22 21 20 18 17 17 17 16 16 17 18 19 20 21 19 17 16 16 15 14 12 11 11 11 11 10 10 11 10 10 10 11 12 12 14 16 18 18 19 20
26 26 25 25 24 23 24 25 26 26 26 25 26 27 28 29 30 31 33 34 36 38 39 41 41 37 35 33 31 30 28 26 25 25 24 23 23 23 23 23 24 24 24 24 23 23 22 21 20 19 19 19 18 18 19 20 21 21 20 18 16 15 15 13 12 11 11 11 10 10 10 10 10 10 10 10 10 11 13 15 16 17 18 19 20
25 25 25 25 24 23 23 24 25 26 26 26 26 27 28 29 30 31 33 34 36 37 39 40 40 38 35 33 32 31 30 29 27 27 26 25 23 23 23 24 24 24 24 25 24 24 24 23 22 21 21 20 20 20 20 21 21 20 18 17 16 15 13 12 11 11 10 10 10 9 9 9 10 11 10 10 10 12 14 16 16 17 18 19 20
24 25 25 24 24 23 23 23 25 26 26 26 26 27 28 29 30 31 32 34 35 37 38 39 39 38 36 34 33 31 30 30 29 28 28 27 25 24 24 25 25 25 25 25 25 24 24 23 23 22 22 22 22 22 22 21 19 18 16 15 14 13 12 11 11 10 10 10 10 9 8 9 11 11 11 10 11 12 14 16 16 17 18 19 20
23 24 24 24 23 23 23 23 24 25 26 26 26 26 27 28 30 31 32 33 34 36 37 38 38 37 36 34 33 32 31 30 30 30 29 28 27 26 25 25 25 26 26 26 25 24 23 23 23 23 23 23 23 22 22 20 18 16 15 14 13 12 11 11 11 11 10 10 9 8 8 10 11 11 11 10 10 12 14 15 16 17 18 19 20
21 22 23 23 23 23 23 23 23 25 25 26 26 26 26 28 29 30 31 32 34 35 36 37 37 37 36 35 34 33 32 31 30 30 30 30 28 27 27 26 25 25 26 26 26 25 24 24 23 23 23 22 22 21 20 18 17 15 14 13 12 11 11 11 11 11 10 10 9 8 8 11 13 12 11 10 10 12 14 15 16 18 19 19 20
20 21 22 22 23 22 22 22 23 24 25 26 26 26 26 27 28 29 30 31 32 34 35 36 36 36 36 35 34 34 33 32 31 30 30 30 30 29 28 27 27 26 26 26 25 25 25 24 24 23 22 21 20 19 18 16 15 14 13 13 12 12 11 10 10 11 10 10 9 8 8 11 13 12 10 9 10 12 13 15 17 18 19 19 20
19 19 20 21 22 22 22 22 22 23 24 25 26 26 26 26 27 28 29 30 31 33 34 35 35 35 35 34 34 34 34 33 32 30 30 29 29 29 28 27 27 27 26 26 25 25 25 24 23 22 21 20 18 17 16 15 14 13 13 12 12 11 11 10 11 11 10 10 9 8 9 12 13 12 10 9 10 12 13 15 17 18 19 20 20
18 18 19 20 21 22 22 22 22 22 23 24 25 26 26 25 25 27 28 29 30 31 32 33 34 34 34 34 33 34 34 34 33 32 30 29 28 28 27 27 26 26 26 26 25 24 23 23 22 21 20 18 17 16 15 14 13 12 12 12 11 11 10 11 11 10 10 9 8 8 9 12 13 12 10 9 10 12 13 15 17 18 19 19 20
16 17 18 19 20 21 21 21 21 22 22 22 24 25 25 25 25 25 26 28 29 30 30 31 32 33 33 33 33 33 33 33 33 32 31 30 28 27 26 25 25 24 24 24 24 23 22 21 20 19 18 17 16 15 14 13 12 12 11 11 12 11 11 11 11 10 9 8 8 8 10 12 13 11 9 9 10 12 14 15 17 18 19 19 20
15 16 17 18 19 20 20 21 21 21 21 21 22 24 24 24 24 24 25 26 27 28 29 29 30 30 31 32 32 32 32 32 32 32 31 31 29 28 26 25 24 24 23 23 22 21 20 19 18 17 16 16 15 14 13 12 12 12 12 12 12 12 11 10 10 9 9 8 9 9 11 12 12 11 9 9 11 13 14 15 17 18 18 19 19
14 14 16 16 17 19 20 21 21 21 21 21 21 22 23 24 24 24 23 24 26 27 27 28 28 29 29 30 31 31 32 32 32 32 31 30 29 28 27 26 25 24 23 22 22 21 19 18 17 16 16 15 15 14 14 14 13 13 13 13 12 11 10 9 9 9 9 10 9 10 11 12 11 10 10 10 12 13 14 15 16 18 18 18 19
12 13 14 16 17 17 19 20 21 21 21 21 21 21 22 23 23 23 23 23 24 25 26 26 26 27 27 28 28 29 30 31 31 31 31 30 29 28 27 27 26 25 24 23 22 21 20 19 17 17 17 17 17 16 16 15 15 14 14 13 12 11 10 9 10 11 11 11 10 11 12 12 11 10 11 12 12 13 14 15 16 17 19 19 18
10 11 12 14 16 17 18 19 20 21 21 21 21 21 21 21 22 23 22 23 23 23 24 24 25 25 25 26 26 27 28 29 29 30 30 30 29 28 27 27 26 26 25 23 22 21 21 20 19 18 18 18 18 17 16 16 15 14 13 12 12 12 12 11 12 13 14 13 11 11 12 12 11 10 11 12 13 13 14 14 15 17 18 19 18
8 10 11 12 15 17 17 19 20 20 20 20 20 21 21 21 21 22 22 23 22 22 22 23 23 23 24 25 25 25 26 26 27 27 28 28 28 28 28 27 27 26 25 24 23 22 22 21 20 19 19 18 18 17 17 16 16 15 14 13 13 13 13 13 13 14 14 13 12 12 12 12 11 11 11 12 12 13 13 14 15 16 17 18 18
6 8 10 11 13 16 17 18 19 20 20 20 21 21 21 20 21 21 22 22 22 21 21 22 22 22 23 23 24 24 24 24 24 25 25 25 26 26 26 26 26 25 25 24 23 23 22 21 20 19 19 19 19 18 17 17 16 16 16 15 14 14 14 13 13 13 14 13 13 12 12 11 11 11 11 11 12 12 13 14 14 15 16 17 18
4 7 9 10 11 14 16 18 19 20 20 20 21 21 21 21 21 21 21 21 21 21 20 21 21 22 22 22 23 23 23 23 23 23 23 23 23 23 24 24 24 23 23 22 22 21 21 21 20 19 19 19 18 18 17 16 15 15 15 16 15 15 15 14 13 12 12 12 13 12 12 12 11 11 10 10 11 12 12 13 14 14 15 16 17
2 5 8 9 10 13 15 17 18 19 19 20 21 21 21 21 21 20 21 21 21 20 20 20 20 21 21 21 22 22 21 21 21 21 21 21 21 21 22 22 21 21 21 20 20 19 19 19 18 18 17 17 17 16 16 15 14 14 14 15 15 15 14 14 13 13 13 12 12 12 12 11 10 10 10 10 10 10 11 12 13 14 15 16 16
1 3 6 9 9 12 16 18 18 19 19 19 20 21 21 21 21 20 20 20 20 20 20 19 19 19 20 21 21 21 21 20 20 20 20 20 20 20 20 20 19 19 19 19 19 18 18 17 17 17 16 16 16 16 16 15 15 14 14 14 15 15 14 14 14 13 14 14 13 12 12 11 10 9 10 10 10 10 10 11 12 14 15 16 16
3 2 3 7 9 12 17 19 19 18 19 19 19 20 21 21 20 20 19 19 20 20 20 19 19 19 19 19 19 20 20 20 20 19 19 19 19 19 19 18 18 18 18 18 18 18 17 17 17 16 16 16 16 16 16 16 15 15 15 15 15 15 14 14 14 13 14 14 13 12 12 12 11 10 10 10 10 10 9 10 12 14 15 16 15
6 4 2 2 6 10 16 20 20 18 18 19 18 19 19 19 19 20 19 19 19 20 20 19 18 18 18 18 18 18 19 19 19 19 19 19 19 19 18 18 18 18 18 17 17 17 17 17 16 16 16 16 16 16 16 15 15 15 15 15 15 15 14 13 13 13 13 13 12 12 12 12 12 11 11 11 10 10 9 10 12 14 15 16 14
9 8 7 6 5 7 12 17 20 19 17 17 18 17 18 18 18 19 19 19 19 19 19 19 18 17 17 17 17 17 17 18 18 19 19 19 19 19 18 18 18 18 17 17 17 17 17 16 16 15 15 15 15 15 15 14 14 14 14 14 14 14 14 13 13 13 13 12 12 11 11 11 12 12 12 11 10 9 9 10 13 14 14 15 13
Wind_Direction
76 78 77 71 58 60 71 76 85 98 117 153 177 189 196 195 195 196 196 191 190 191 171 143 135 132 121 109 96 82 69 57 54 55 53 54 52 48 48 54 62 73 92 109 101 104 118 87 67 66 72 71 63 69 256 12 6 360 360 10 23 23 29 35 45 40 39 46 34 5 353 344 330 323 328 338 348 357 359 354 347 342 339 338 337
75 77 77 74 67 65 69 70 78 87 97 111 128 145 152 152 147 140 135 129 128 126 121 120 123 124 118 112 100 83 65 55 58 62 61 62 60 58 60 63 69 78 90 100 94 93 99 91 90 97 99 91 91 99 87 65 41 34 50 59 59 56 55 50 46 38 21 18 10 357 348 340 336 340 342 343 354 1 356 349 342 338 336 337 340
76 78 78 76 72 71 73 76 81 89 95 102 108 115 119 121 121 121 120 116 112 113 116 116 117 125 125 118 107 86 64 56 61 69 69 69 66 64 67 68 73 80 86 89 86 85 89 94 98 102 101 97 100 100 84 70 54 49 56 57 58 61 61 49 36 20 7 358 351 347 345 344 341 346 344 341 348 353 350 344 340 338 337 339 347
78 81 81 78 76 76 78 81 85 91 96 101 106 110 113 115 116 117 115 112 110 115 119 119 118 126 129 116 111 94 70 58 61 76 78 74 71 67 68 71 77 85 87 85 83 82 83 92 100 99 95 96 99 92 77 66 56 46 44 44 47 56 61 43 16 8 2 355 347 346 354 2 356 345 341 339 343 346 345 342 340 341 341 346 356
76 81 83 81 80 80 80 81 84 89 94 99 104 107 108 107 107 106 104 102 103 113 125 127 122 112 100 87 115 117 93 69 60 77 84 77 73 71 70 74 80 85 92 93 92 92 88 91 97 98 93 94 89 77 69 59 53 44 38 43 47 54 57 40 19 12 4 359 355 356 2 3 354 347 346 343 343 343 343 342 342 344 347 356 1
72 76 79 81 81 81 80 79 79 81 85 91 97 99 97 94 94 94 90 84 83 92 106 110 71 59 35 18 122 136 115 85 67 76 86 82 75 75 74 76 81 84 90 97 102 106 106 105 108 103 94 96 85 76 71 27 41 47 45 49 53 50 43 36 25 17 12 10 9 7 4 1 1 359 355 350 345 344 344 344 345 350 359 4 4
70 71 72 74 75 76 75 74 74 74 76 79 83 86 87 86 92 96 88 77 77 87 57 41 41 32 355 3 101 157 140 100 84 73 83 87 78 77 77 76 80 87 93 97 105 105 107 122 120 111 102 97 73 70 62 10 43 60 50 45 41 34 31 33 24 21 20 19 24 25 21 17 17 9 359 351 346 347 347 348 354 5 9 7 6
69 69 69 69 69 70 69 69 68 68 68 68 68 68 70 76 84 87 82 73 75 95 86 62 54 47 33 37 77 164 152 108 91 80 81 87 80 77 81 82 82 88 103 103 105 100 105 129 125 119 116 96 62 37 33 27 50 46 24 20 17 17 20 29 24 20 19 19 31 34 27 20 14 6 358 351 349 351 351 358 12 16 11 9 7
69 69 68 67 67 68 67 65 64 64 63 62 61 60 60 61 64 63 62 72 84 92 84 69 65 71 72 73 91 119 131 111 102 103 86 85 86 82 86 97 102 107 117 97 98 99 110 132 110 107 105 100 95 77 29 30 21 349 2 356 354 4 7 24 26 15 10 11 23 21 13 7 4 1 357 354 355 356 2 18 22 17 13 10 6
69 68 68 68 69 70 69 68 66 65 65 64 64 64 62 60 58 56 56 65 75 74 66 57 58 69 79 85 97 111 119 111 110 114 92 85 93 93 96 110 119 123 115 86 94 108 125 120 96 114 135 118 116 155 202 296 320 300 2 345 339 351 358 17 24 14 11 6 359 355 357 359 360 358 358 2 4 7 23 29 23 18 14 9 6
68 67 67 68 70 72 74 74 71 70 70 70 69 68 66 64 62 59 57 57 60 59 53 51 55 61 68 78 92 105 114 113 115 112 95 94 98 103 110 119 125 126 121 103 105 130 138 123 119 147 157 117 125 172 215 299 323 328 353 340 321 333 353 8 12 10 7 359 351 351 354 357 360 2 10 14 15 29 37 30 23 18 13 9 8
66 67 67 69 71 72 73 74 72 70 71 71 70 70 69 67 65 62 61 59 60 59 59 58 57 55 52 54 65 78 89 111 122 112 97 96 101 111 121 124 123 123 120 107 109 167 136 138 156 170 126 100 144 261 285 331 344 347 345 336 319 332 348 352 2 7 3 359 358 356 354 358 7 18 23 26 36 44 38 29 23 17 12 10 8
62 63 65 67 68 68 68 69 70 69 69 70 70 72 71 69 66 63 62 62 63 64 66 63 57 51 44 39 52 72 79 87 105 107 98 94 98 109 122 130 129 127 123 122 160 205 165 165 165 140 140 173 247 271 297 329 353 1 347 337 343 345 337 342 10 13 10 8 2 358 1 15 30 35 35 45 52 46 36 29 22 16 13 10 6
58 60 62 64 65 64 63 64 65 67 69 70 70 70 69 68 65 63 62 60 62 67 69 63 59 52 42 23 32 55 70 71 88 93 82 95 109 116 122 136 146 152 143 144 169 201 199 183 143 160 180 220 246 257 298 326 352 353 341 339 353 352 346 10 19 14 14 9 1 8 27 41 45 47 54 60 54 44 35 27 20 16 13 10 8
55 57 60 62 64 62 60 61 64 68 71 69 67 67 66 62 58 58 55 55 61 65 65 60 58 57 48 4 11 31 77 91 127 130 43 87 128 135 133 141 151 162 151 142 157 194 204 197 189 208 216 244 256 264 307 342 348 343 340 344 1 7 12 18 11 10 13 8 13 33 44 49 58 66 67 62 51 42 33 25 20 17 14 13 14
53 54 57 61 62 60 58 61 65 69 70 67 64 64 63 56 53 53 52 56 63 63 62 52 51 68 73 6 9 357 317 308 187 171 108 282 192 135 147 147 147 157 148 140 159 184 188 183 221 236 251 256 265 331 2 360 349 355 1 2 17 7 8 8 4 12 16 18 31 43 52 65 73 74 68 58 49 39 30 24 21 19 18 19 19
52 53 56 59 61 59 58 60 64 68 66 62 62 61 59 53 49 50 51 53 55 59 62 44 42 58 33 24 26 339 318 311 276 202 157 207 208 175 180 165 159 168 156 150 166 178 165 161 198 228 257 265 327 31 24 15 15 22 35 53 14 360 2 1 6 24 25 30 43 57 73 80 78 72 64 55 45 36 29 25 24 24 24 22 20
51 52 54 57 59 59 59 60 62 64 62 59 59 57 55 51 46 47 47 44 44 51 55 42 40 42 17 20 5 331 338 323 280 181 147 188 207 190 181 172 181 182 161 152 163 176 172 177 195 208 230 252 13 33 33 31 42 55 88 43 6 359 1 3 25 38 33 45 63 78 84 81 75 67 60 51 41 34 29 28 30 29 25 21 20
48 51 53 54 57 59 59 58 59 60 58 56 56 55 52 47 42 43 45 42 46 50 48 39 34 27 12 12 349 329 336 263 159 129 151 201 222 197 176 177 192 178 148 143 162 187 196 198 203 207 210 187 92 66 66 81 126 136 62 12 357 356 2 21 48 42 47 69 83 88 84 77 70 63 56 46 38 32 32 35 35 30 24 21 22
45 48 50 52 54 57 59 57 56 56 55 53 53 51 47 41 37 41 43 41 44 44 41 34 29 26 13 7 355 348 340 258 142 127 180 213 228 196 178 182 191 168 154 188 197 208 210 207 205 204 195 161 125 121 134 147 142 95 15 358 352 358 16 54 57 52 70 85 92 88 77 71 65 59 50 41 34 34 40 41 35 27 23 23 24
42 45 47 50 52 55 56 55 54 53 51 50 49 48 45 39 37 39 40 38 37 36 35 31 27 25 13 8 7 11 8 171 144 163 188 190 174 169 172 180 181 160 169 203 206 209 207 202 199 191 175 145 138 148 151 147 98 8 355 350 353 16 58 69 62 71 88 94 92 80 71 68 62 54 44 35 36 42 45 41 32 24 23 25 25
39 42 45 47 49 50 51 51 51 51 49 49 49 48 45 40 38 39 38 35 34 33 32 29 24 20 12 12 23 19 38 108 133 165 144 126 125 141 159 162 157 153 180 199 196 196 196 192 187 177 155 143 157 163 165 173 324 327 336 345 17 66 80 74 74 89 98 95 83 73 69 66 58 49 37 35 42 47 46 38 28 23 24 26 26
38 39 42 43 45 46 46 47 48 50 49 48 48 47 44 41 39 38 36 34 32 31 29 26 22 18 14 17 49 89 106 109 109 123 124 130 134 138 144 135 129 158 194 194 185 185 186 181 171 160 151 158 172 177 192 232 280 302 330 28 77 88 84 81 90 100 99 87 76 70 67 63 55 43 35 38 47 49 44 35 26 23 24 26 28
36 37 39 41 42 43 44 46 47 50 49 48 47 45 43 41 39 37 36 34 32 31 28 25 20 17 21 32 63 94 110 121 130 132 133 138 138 135 132 131 144 171 185 180 176 178 176 166 156 157 164 173 184 196 216 245 276 286 99 95 96 95 89 91 102 102 91 80 74 69 65 60 51 42 37 42 49 50 42 33 26 24 24 26 31
36 35 37 39 40 41 42 44 46 48 49 48 45 43 42 40 39 37 35 34 33 31 29 25 21 22 32 48 70 88 100 114 129 131 132 134 129 126 130 149 169 172 171 168 168 172 171 164 162 168 177 185 195 205 219 229 200 135 114 107 104 98 95 103 107 96 84 77 73 69 64 57 48 42 41 46 52 50 41 32 26 24 24 28 33
35 34 35 37 37 39 39 41 44 46 48 47 45 43 43 41 39 38 36 35 34 32 30 27 25 32 46 59 75 89 99 108 117 120 121 125 125 128 141 155 161 157 157 158 160 163 166 167 169 174 181 189 195 194 180 155 138 126 118 113 107 101 105 110 102 89 80 75 73 70 62 53 47 43 44 50 54 49 39 32 26 23 25 31 35
35 34 34 35 36 37 37 38 41 44 46 46 46 45 44 42 40 39 37 37 35 33 31 29 31 42 55 64 76 89 98 105 110 112 117 122 124 128 133 135 135 136 141 145 149 152 157 162 167 172 177 178 170 157 145 135 130 124 118 113 108 108 112 107 95 85 79 76 73 67 59 52 46 45 49 55 56 48 40 32 25 22 26 32 35
35 35 34 34 35 36 35 35 39 42 44 45 46 45 44 44 43 41 39 38 37 35 33 33 37 48 59 68 79 88 94 96 97 100 106 112 115 117 118 119 120 123 129 133 137 141 146 150 154 157 155 149 144 138 133 130 127 122 115 111 111 113 111 100 89 82 79 77 71 64 56 50 47 47 53 59 57 48 39 30 22 23 28 31 33
33 34 34 34 34 34 33 34 36 39 41 43 44 45 44 45 45 44 42 41 39 37 36 37 42 51 61 71 80 85 87 86 86 89 94 99 104 108 110 112 114 116 120 124 128 131 132 133 134 135 134 132 131 131 130 128 125 119 113 112 113 111 103 93 85 81 79 74 66 59 53 50 49 51 58 62 57 48 38 27 21 24 28 29 31
32 34 34 34 33 33 32 32 34 37 39 40 42 44 45 45 46 46 44 43 42 41 40 41 46 54 63 71 77 79 80 79 81 84 87 91 96 100 104 107 110 112 115 117 120 122 121 120 122 125 126 125 126 128 127 125 122 116 113 113 111 104 95 88 84 81 78 71 62 55 51 50 51 56 64 64 55 45 34 24 22 25 28 29 30
31 33 33 34 33 32 32 32 33 35 37 39 41 44 45 46 47 47 46 45 45 44 43 45 49 55 62 69 72 74 76 77 79 82 85 87 91 95 99 102 106 110 112 114 115 115 116 118 121 123 123 123 124 124 123 121 117 113 112 111 106 97 90 86 82 79 74 67 59 53 49 50 56 64 70 65 52 40 29 22 23 25 28 28 29
31 32 33 34 33 32 32 31 32 33 35 37 39 43 45 47 48 47 48 48 47 47 47 48 51 56 60 64 68 71 73 75 78 81 84 86 89 92 95 100 103 106 109 111 113 115 117 119 120 121 120 120 120 119 118 115 112 110 109 105 98 92 88 84 79 75 70 65 59 54 50 53 61 72 74 65 48 35 26 22 23 26 28 27 27
31 31 32 33 32 32 32 31 31 32 34 36 38 41 45 47 48 48 49 50 49 49 51 51 52 56 60 62 64 67 71 74 77 80 83 85 87 89 92 96 100 104 107 109 111 113 115 116 118 118 118 117 117 116 114 110 109 107 103 97 92 89 85 81 76 71 67 65 62 55 54 59 69 78 77 64 46 33 25 22 24 27 27 25 26
31 31 32 33 32 31 32 31 31 32 33 34 37 40 44 47 48 49 50 51 52 52 53 54 54 56 59 61 63 64 67 71 76 79 82 84 87 89 90 93 98 102 106 108 109 109 110 111 113 114 115 115 115 113 110 108 106 101 96 91 88 86 81 77 72 69 68 67 63 59 61 68 77 81 75 61 45 33 25 23 25 26 26 24 26
31 31 31 32 32 30 32 31 30 31 32 33 35 38 42 46 48 49 50 52 53 53 54 55 56 56 58 60 62 63 65 68 73 78 81 84 87 90 91 93 96 99 102 104 106 107 108 108 109 110 110 110 108 107 105 103 101 96 91 88 85 81 75 71 69 71 72 69 65 65 69 77 83 82 72 59 45 34 28 26 26 25 25 25 28
32 32 30 31 32 30 31 32 31 30 31 32 34 36 40 43 47 49 50 52 54 54 55 56 57 58 59 60 62 62 63 66 70 75 79 82 85 88 90 92 93 95 97 99 101 103 105 106 106 106 105 104 102 100 99 96 95 92 88 83 79 73 69 69 72 76 74 71 72 74 76 82 86 84 72 58 47 37 32 29 26 25 25 27 31
34 33 30 29 31 29 30 31 32 31 30 31 32 34 38 41 45 48 50 51 54 55 55 56 57 59 60 61 62 63 63 64 67 71 75 79 82 84 86 88 89 90 91 93 95 98 100 101 102 102 101 99 97 95 93 92 90 86 82 77 71 69 69 73 77 77 75 74 80 80 81 86 88 84 73 57 49 43 37 32 28 26 26 29 33
34 35 31 29 29 29 28 30 32 31 30 30 31 33 35 38 43 47 49 51 53 55 56 56 57 59 60 62 63 64 64 64 65 68 71 75 78 81 82 83 85 87 88 90 91 93 95 97 98 98 97 95 93 91 89 87 83 79 74 70 69 71 75 78 79 76 75 78 81 80 85 88 88 84 75 59 51 47 41 35 30 27 27 31 35
33 34 32 30 28 28 27 28 30 32 31 29 30 31 34 36 39 44 48 50 52 54 55 56 57 58 60 62 64 65 65 65 65 66 68 71 74 77 79 81 82 84 86 87 89 90 91 93 93 94 93 91 88 85 82 78 74 71 69 69 72 75 77 79 77 75 76 77 76 80 86 88 88 85 75 61 53 48 43 38 33 29 29 33 36
32 31 32 30 28 26 25 26 28 31 32 30 30 30 32 34 36 41 45 49 52 53 54 55 56 57 59 62 64 65 66 67 67 66 67 68 70 73 76 78 79 80 82 84 86 87 88 88 88 88 87 84 81 77 74 71 70 70 70 71 73 76 77 74 71 72 74 74 75 82 85 85 87 83 72 61 52 48 44 40 36 33 32 34 37
28 29 29 29 26 24 24 24 26 29 31 31 30 30 31 33 34 37 41 46 51 53 53 54 54 56 57 60 62 65 66 67 68 67 67 68 68 69 71 73 75 77 79 81 82 83 83 83 81 80 79 76 73 71 70 70 70 71 71 72 74 74 71 67 66 67 67 72 78 82 82 82 80 75 68 61 52 46 43 41 40 37 35 36 38
24 27 27 27 24 22 21 22 24 26 29 30 30 30 30 31 32 34 37 42 48 52 53 53 53 54 55 57 59 62 65 67 68 68 68 67 68 68 69 70 72 73 74 76 77 78 78 78 76 75 74 73 73 73 72 72 72 71 70 70 71 68 64 62 63 66 67 73 77 77 79 79 74 66 61 58 52 47 43 41 41 40 38 38 38
24 29 27 25 22 19 19 21 23 23 26 27 28 29 29 30 31 32 33 37 43 48 51 53 53 53 53 54 56 59 62 64 66 67 68 68 68 68 69 69 70 70 71 71 72 74 74 74 74 73 73 73 73 72 71 70 69 69 67 66 67 69 68 66 67 71 72 73 73 73 75 76 71 62 53 49 50 47 43 40 40 41 40 39 38
29 36 29 25 22 18 16 19 22 22 23 25 26 28 29 29 31 32 32 33 37 41 47 51 52 52 51 52 53 54 56 59 62 65 67 67 67 67 67 67 68 68 68 68 68 69 69 69 69 69 69 69 68 67 66 65 66 67 65 63 64 68 70 70 71 73 75 73 70 68 69 69 66 58 48 41 41 43 41 39 38 37 37 38 37
35 42 31 27 23 19 16 17 21 22 21 22 23 25 27 28 29 31 32 32 33 35 40 46 50 50 50 51 51 51 52 53 56 60 63 64 65 65 65 65 65 65 66 66 66 66 66 66 65 65 65 65 65 64 63 62 64 65 64 61 59 62 64 65 67 70 74 75 72 67 63 62 59 53 43 35 33 34 36 36 34 31 32 34 35
33 43 33 29 24 20 16 16 20 22 21 19 20 21 24 25 27 29 31 32 32 32 35 40 46 48 49 49 50 49 49 50 50 53 57 60 61 62 63 63 62 63 63 63 63 63 64 63 62 61 61 62 62 61 61 59 60 61 63 61 58 57 58 59 59 61 65 71 73 69 62 57 53 48 40 32 27 28 30 31 29 27 27 29 31
18 38 37 34 25 19 15 14 16 21 21 19 18 19 20 22 24 26 28 30 32 33 33 35 39 44 47 49 49 49 48 48 47 47 50 54 57 58 59 60 60 60 60 59 58 58 59 60 60 58 57 57 57 57 56 55 55 57 60 64 63 60 59 58 56 55 56 58 63 65 63 58 52 44 37 30 25 24 27 30 29 26 24 25 27
312 27 42 42 31 22 17 13 12 14 17 18 18 18 18 19 20 23 25 27 30 33 33 33 34 39 44 47 48 49 48 47 46 45 46 49 52 55 56 57 57 57 57 57 57 56 56 57 57 57 57 56 56 55 55 54 53 55 57 60 64 64 63 60 58 55 55 53 52 53 53 51 46 39 32 26 21 19 24 32 32 28 24 24 26
249 307 35 47 37 25 17 13 10 10 12 14 15 15 16 17 18 20 22 24 27 30 32 32 33 34 38 43 46 47 48 47 46 45 44 45 48 51 52 54 54 54 54 55 56 56 55 55 55 56 57 57 58 57 56 55 53 53 54 55 58 61 62 62 60 58 57 55 52 47 43 41 39 34 29 21 16 14 23 35 34 30 25 23 26
239 255 271 6 20 13 10 7 6 7 10 12 12 12 14 17 19 19 19 21 24 27 29 31 32 33 33 37 42 45 45 46 46 45 44 43 44 46 48 50 51 52 53 53 54 55 55 54 54 54 54 55 56 57 56 54 52 51 52 52 52 53 55 56 57 58 57 55 52 47 42 38 35 34 29 23 17 13 24 38 35 30 25 24 27
235 242 253 273 307 339 351 357 359 3 9 12 11 10 11 15 19 20 20 20 21 22 26 29 30 32 32 33 36 40 42 43 44 44 44 43 42 42 44 45 47 49 50 50 51 53 53 52 51 50 51 50 50 52 51 50 49 47 48 50 51 50 49 47 48 52 54 51 48 44 39 36 33 32 28 25 24 21 30 36 30 27 25 25 28
Height
10948 10947 10946 10945 10945 10945 10945 10946 10947 10948 10948 10948 10948 10948 10949 10948 10948 10948 10949 10950 10951 10952 10954 10954 10954 10954 10955 10956 10956 10956 10956 10955 10954 10953 10952 10951 10950 10950 10949 10947 10946 10946 10946 10944 10943 10946 10948 10948 10949 10951 10952 10953 10953 10954 10954 10955 10955 10955 10955 10956 10956 10956 10956 10956 10957 10957 10957 10957 10957 10957 10958 10958 10958 10957 10957 10956 10955 10955 10954 10953 10951 10950 10949 10948 10946
10950 10949 10948 10947 10946 10946 10946 10946 10947 10948 10947 10947 10947 10947 10948 10948 10948 10949 10950 10951 10952 10953 10954 10954 10954 10954 10955 10956 10956 10956 10956 10955 10955 10954 10953 10952 10952 10951 10950 10948 10947 10946 10946 10945 10945 10947 10948 10949 10950 10951 10952 10953 10954 10955 10955 10956 10956 10956 10956 10956 10957 10957 10956 10956 10957 10957 10957 10957 10958 10958 10958 10958 10957 10957 10956 10956 10955 10954 10953 10952 10951 10949 10948 10947 10945
10952 10951 10951 10950 10948 10948 10948 10948 10948 10948 10948 10948 10948 10948 10948 10948 10949 10950 10951 10952 10952 10953 10954 10954 10954 10954 10955 10956 10956 10956 10956 10956 10955 10955 10954 10953 10953 10952 10951 10949 10948 10947 10947 10947 10947 10948 10948 10950 10952 10952 10953 10954 10955 10955 10956 10957 10957 10957 10957 10957 10958 10958 10957 10957 10958 10958 10957 10957 10958 10958 10958 10957 10957 10956 10956 10955 10954 10953 10952 10951 10950 10948 10947 10946 10944
10954 10953 10953 10952 10951 10950 10950 10950 10950 10950 10950 10950 10950 10949 10950 10950 10951 10952 10953 10954 10953 10953 10954 10954 10955 10955 10955 10955 10956 10956 10957 10956 10956 10956 10955 10954 10954 10953 10952 10950 10949 10948 10948 10950 10951 10950 10949 10951 10953 10954 10954 10955 10955 10956 10957 10957 10957 10958 10958 10958 10958 10959 10960 10959 10959 10958 10958 10958 10958 10957 10957 10957 10956 10956 10955 10954 10954 10952 10951 10950 10949 10948 10946 10945 10944
10955 10954 10955 10955 10954 10953 10953 10953 10953 10952 10952 10952 10952 10952 10952 10952 10953 10954 10955 10955 10954 10953 10954 10954 10955 10955 10954 10955 10955 10956 10956 10956 10956 10956 10956 10955 10955 10954 10953 10952 10950 10949 10950 10952 10955 10954 10951 10952 10954 10954 10955 10956 10956 10956 10957 10958 10958 10958 10959 10959 10959 10960 10961 10960 10959 10958 10958 10958 10957 10957 10956 10956 10956 10955 10954 10954 10953 10951 10950 10949 10948 10947 10946 10944 10943
10957 10956 10956 10956 10956 10956 10955 10954 10954 10954 10954 10954 10954 10954 10953 10954 10954 10955 10955 10955 10954 10953 10953 10954 10954 10954 10954 10954 10955 10955 10955 10956 10956 10956 10956 10956 10955 10955 10954 10953 10951 10950 10951 10954 10956 10956 10954 10954 10954 10954 10956 10956 10957 10957 10958 10958 10958 10959 10960 10960 10960 10959 10960 10960 10959 10958 10958 10958 10957 10956 10956 10955 10955 10954 10954 10953 10952 10950 10949 10948 10947 10946 10945 10944 10942
10959 10958 10958 10958 10958 10957 10956 10956 10955 10954 10954 10955 10954 10954 10954 10955 10955 10955 10955 10955 10954 10953 10953 10953 10954 10954 10953 10953 10954 10954 10955 10955 10956 10956 10956 10956 10956 10955 10955 10954 10952 10951 10952 10954 10956 10958 10958 10956 10955 10956 10957 10957 10958 10959 10959 10959 10959 10960 10960 10961 10960 10960 10959 10959 10959 10958 10958 10958 10957 10956 10955 10955 10954 10954 10953 10952 10951 10950 10949 10948 10947 10946 10944 10943 10941
10962 10960 10960 10960 10959 10958 10958 10957 10956 10956 10955 10955 10955 10955 10955 10955 10956 10955 10955 10955 10954 10954 10953 10953 10954 10953 10953 10953 10953 10954 10954 10955 10955 10956 10956 10956 10956 10956 10956 10956 10955 10953 10952 10954 10956 10958 10960 10958 10958 10959 10959 10960 10960 10960 10960 10960 10960 10960 10960 10961 10960 10960 10959 10959 10959 10958 10958 10957 10957 10956 10955 10954 10954 10953 10952 10951 10950 10950 10949 10948 10946 10945 10944 10943 10941
10964 10962 10962 10962 10961 10960 10959 10959 10958 10957 10956 10956 10955 10955 10955 10956 10956 10955 10955 10954 10954 10954 10953 10953 10953 10953 10953 10953 10953 10953 10954 10955 10955 10955 10956 10956 10957 10956 10956 10957 10957 10954 10952 10954 10956 10959 10960 10959 10960 10962 10962 10962 10961 10961 10961 10961 10960 10961 10960 10960 10960 10960 10959 10959 10958 10958 10957 10957 10956 10956 10955 10954 10953 10952 10951 10951 10950 10950 10949 10947 10946 10945 10944 10942 10941
10966 10965 10964 10964 10963 10962 10961 10961 10960 10959 10958 10957 10956 10956 10956 10955 10955 10955 10955 10954 10954 10953 10953 10953 10953 10953 10953 10953 10953 10953 10954 10954 10954 10955 10955 10956 10957 10957 10956 10957 10957 10955 10954 10956 10957 10959 10960 10960 10960 10963 10963 10963 10963 10963 10962 10961 10961 10961 10961 10960 10960 10960 10959 10959 10958 10958 10957 10957 10956 10955 10954 10953 10953 10952 10951 10951 10950 10949 10948 10947 10946 10945 10943 10942 10940
10969 10967 10966 10966 10965 10964 10963 10962 10962 10961 10960 10958 10957 10956 10956 10956 10956 10955 10955 10954 10954 10954 10953 10953 10953 10953 10953 10953 10953 10953 10953 10953 10954 10954 10954 10956 10957 10957 10956 10956 10956 10957 10958 10958 10958 10959 10960 10960 10961 10962 10963 10963 10964 10963 10962 10962 10962 10961 10961 10960 10960 10959 10959 10958 10958 10957 10957 10956 10956 10955 10954 10953 10952 10951 10951 10951 10950 10949 10948 10947 10946 10944 10943 10942 10940
10971 10969 10968 10968 10967 10966 10965 10964 10963 10962 10961 10960 10959 10958 10958 10957 10957 10956 10956 10955 10955 10954 10954 10954 10954 10954 10954 10954 10953 10953 10953 10953 10953 10953 10954 10955 10956 10957 10956 10955 10956 10958 10959 10961 10960 10958 10959 10961 10961 10961 10962 10963 10963 10962 10962 10963 10962 10961 10961 10960 10960 10959 10959 10958 10958 10957 10957 10956 10955 10954 10953 10952 10951 10951 10951 10951 10950 10949 10948 10947 10945 10944 10943 10941 10940
10973 10972 10971 10970 10969 10967 10966 10965 10964 10963 10962 10962 10961 10961 10960 10959 10958 10957 10957 10956 10955 10955 10955 10955 10955 10956 10955 10953 10952 10953 10953 10953 10953 10953 10953 10955 10956 10957 10957 10956 10956 10957 10959 10963 10962 10959 10960 10961 10961 10961 10962 10963 10963 10962 10963 10963 10962 10961 10961 10960 10960 10959 10959 10958 10958 10957 10956 10956 10955 10954 10953 10952 10951 10951 10951 10950 10949 10949 10948 10947 10945 10944 10943 10941 10940
10975 10974 10973 10971 10970 10969 10968 10967 10966 10965 10964 10964 10964 10963 10961 10960 10959 10958 10958 10957 10956 10956 10956 10956 10957 10957 10954 10952 10952 10953 10953 10952 10952 10953 10953 10954 10956 10957 10957 10958 10957 10956 10959 10964 10963 10960 10960 10960 10960 10961 10962 10962 10962 10962 10962 10962 10962 10961 10961 10960 10960 10960 10959 10958 10958 10957 10956 10955 10955 10954 10953 10952 10952 10951 10951 10950 10950 10949 10948 10947 10945 10944 10943 10942 10940
10978 10976 10975 10973 10972 10971 10969 10968 10967 10967 10967 10966 10966 10964 10962 10961 10960 10960 10959 10959 10958 10957 10957 10957 10958 10957 10954 10951 10951 10952 10952 10951 10951 10952 10953 10954 10955 10956 10958 10958 10958 10957 10959 10963 10964 10961 10960 10959 10958 10960 10961 10962 10962 10962 10962 10962 10962 10961 10961 10960 10960 10960 10959 10958 10958 10957 10956 10955 10954 10953 10952 10952 10952 10952 10951 10951 10950 10949 10948 10947 10946 10945 10943 10942 10941
10980 10978 10977 10975 10974 10973 10971 10970 10969 10969 10968 10968 10967 10965 10964 10963 10962 10962 10962 10960 10959 10958 10958 10958 10959 10958 10953 10951 10951 10952 10951 10950 10951 10952 10952 10953 10954 10956 10957 10958 10959 10959 10960 10964 10965 10963 10961 10958 10957 10958 10959 10961 10961 10962 10962 10962 10962 10961 10961 10960 10960 10960 10959 10958 10957 10957 10956 10955 10954 10953 10953 10953 10952 10952 10952 10951 10950 10949 10948 10947 10946 10945 10944 10943 10941
10982 10980 10978 10977 10976 10974 10973 10972 10971 10971 10970 10969 10968 10967 10966 10965 10964 10964 10963 10962 10960 10959 10958 10958 10959 10956 10952 10949 10949 10950 10950 10949 10950 10951 10952 10952 10953 10955 10956 10958 10959 10960 10961 10963 10965 10964 10963 10962 10960 10959 10958 10959 10961 10962 10962 10962 10961 10961 10961 10961 10960 10960 10959 10958 10957 10956 10956 10955 10954 10954 10954 10953 10953 10953 10952 10951 10951 10950 10949 10948 10947 10946 10944 10943 10941
10984 10982 10980 10979 10978 10976 10975 10974 10973 10972 10972 10971 10970 10969 10968 10967 10966 10965 10964 10962 10960 10959 10958 10957 10957 10955 10951 10947 10946 10946 10947 10948 10949 10949 10950 10951 10952 10954 10955 10957 10959 10960 10959 10960 10962 10964 10964 10965 10964 10962 10960 10960 10961 10962 10962 10962 10962 10962 10961 10961 10960 10960 10959 10958 10957 10956 10956 10955 10954 10954 10954 10954 10954 10953 10953 10952 10951 10950 10949 10948 10947 10946 10945 10943 10941
10986 10984 10982 10981 10980 10978 10977 10976 10975 10974 10973 10973 10972 10971 10970 10968 10967 10966 10964 10963 10961 10959 10958 10957 10955 10953 10950 10946 10943 10943 10944 10945 10946 10946 10949 10951 10952 10953 10955 10956 10958 10959 10957 10958 10961 10962 10964 10964 10965 10965 10963 10962 10962 10962 10962 10962 10962 10962 10961 10960 10960 10959 10959 10958 10957 10956 10956 10955 10955 10956 10955 10955 10954 10954 10953 10953 10952 10951 10950 10949 10948 10947 10945 10943 10942
10988 10986 10984 10983 10981 10980 10979 10978 10977 10976 10975 10974 10973 10972 10971 10969 10967 10966 10964 10962 10961 10959 10957 10956 10954 10952 10949 10945 10942 10941 10942 10943 10943 10944 10947 10950 10951 10952 10954 10956 10958 10957 10957 10961 10962 10962 10963 10964 10965 10965 10964 10964 10963 10963 10963 10962 10962 10961 10961 10960 10959 10959 10958 10958 10957 10957 10956 10956 10956 10957 10956 10956 10955 10955 10954 10953 10953 10952 10951 10950 10949 10947 10946 10944 10943
10990 10988 10986 10984 10983 10982 10981 10980 10978 10977 10977 10976 10974 10973 10972 10970 10968 10966 10964 10962 10960 10958 10957 10955 10953 10951 10948 10945 10941 10940 10941 10941 10941 10942 10945 10947 10948 10950 10952 10955 10956 10957 10959 10962 10962 10961 10963 10964 10964 10965 10964 10964 10964 10964 10963 10962 10961 10961 10960 10960 10959 10959 10959 10958 10957 10957 10957 10957 10957 10957 10957 10957 10956 10956 10955 10954 10954 10953 10952 10951 10950 10948 10946 10945 10943
10992 10990 10988 10986 10985 10984 10983 10981 10980 10979 10978 10977 10975 10974 10973 10971 10969 10967 10964 10962 10960 10958 10957 10955 10953 10950 10947 10944 10941 10940 10939 10939 10939 10941 10943 10946 10947 10949 10951 10953 10954 10956 10959 10960 10960 10961 10962 10963 10964 10964 10964 10964 10964 10963 10962 10962 10961 10961 10960 10960 10959 10959 10959 10958 10958 10958 10958 10958 10958 10958 10958 10957 10957 10957 10956 10955 10954 10953 10953 10951 10950 10949 10947 10946 10944
10994 10992 10990 10988 10986 10985 10984 10983 10982 10981 10980 10978 10977 10975 10974 10972 10970 10968 10965 10963 10961 10959 10957 10954 10952 10949 10945 10942 10941 10942 10941 10941 10942 10942 10944 10946 10947 10948 10950 10950 10951 10955 10958 10958 10958 10959 10960 10962 10963 10963 10963 10963 10963 10962 10962 10961 10961 10961 10960 10960 10960 10959 10959 10959 10959 10959 10960 10959 10959 10959 10959 10958 10958 10958 10957 10956 10955 10954 10953 10952 10951 10949 10948 10947 10945
10996 10994 10992 10990 10988 10987 10985 10984 10983 10982 10981 10980 10978 10976 10975 10973 10971 10969 10967 10965 10963 10960 10957 10954 10951 10947 10943 10941 10941 10942 10943 10944 10944 10944 10945 10946 10946 10946 10947 10948 10950 10954 10955 10955 10957 10958 10959 10961 10962 10962 10963 10963 10962 10962 10961 10961 10960 10960 10960 10960 10960 10960 10960 10960 10960 10961 10961 10960 10960 10960 10960 10959 10959 10958 10958 10957 10956 10955 10954 10953 10952 10950 10949 10948 10946
10997 10996 10994 10992 10990 10989 10987 10986 10985 10984 10982 10981 10980 10978 10976 10974 10972 10970 10968 10966 10964 10961 10958 10955 10951 10946 10943 10941 10941 10942 10943 10944 10944 10944 10944 10944 10944 10945 10946 10949 10951 10953 10954 10955 10956 10957 10959 10960 10961 10961 10962 10961 10961 10961 10961 10960 10960 10960 10960 10960 10960 10960 10960 10961 10962 10962 10961 10961 10961 10961 10961 10960 10960 10959 10958 10957 10957 10956 10955 10954 10952 10951 10950 10948 10947
11000 10998 10996 10994 10992 10990 10989 10988 10986 10985 10984 10983 10982 10980 10978 10976 10973 10971 10969 10967 10965 10962 10960 10956 10951 10947 10944 10943 10942 10942 10943 10944 10945 10945 10945 10944 10945 10946 10949 10951 10952 10952 10953 10954 10956 10957 10958 10959 10960 10960 10961 10961 10961 10960 10960 10960 10960 10960 10960 10961 10961 10961 10961 10962 10963 10962 10962 10962 10962 10962 10962 10961 10960 10960 10959 10958 10957 10956 10955 10954 10953 10952 10951 10949 10948
11001 11000 10998 10996 10994 10993 10991 10990 10988 10987 10985 10984 10983 10982 10980 10977 10975 10973 10971 10968 10966 10964 10961 10957 10952 10948 10946 10945 10944 10944 10945 10946 10946 10947 10947 10947 10948 10949 10950 10951 10951 10952 10953 10954 10955 10956 10957 10958 10959 10960 10960 10960 10960 10960 10960 10960 10960 10960 10961 10961 10961 10962 10963 10963 10963 10963 10963 10963 10963 10963 10962 10962 10961 10960 10959 10959 10958 10957 10956 10955 10954 10953 10951 10950 10948
11003 11001 11000 10998 10996 10995 10993 10991 10990 10988 10987 10986 10985 10984 10982 10979 10977 10975 10973 10970 10968 10965 10962 10958 10953 10949 10948 10947 10947 10947 10947 10948 10948 10948 10949 10949 10949 10950 10950 10951 10951 10952 10953 10955 10955 10956 10957 10958 10959 10959 10960 10960 10960 10960 10960 10960 10961 10961 10962 10962 10962 10963 10964 10964 10964 10964 10964 10964 10964 10964 10963 10962 10961 10961 10960 10960 10959 10958 10957 10956 10955 10953 10952 10951 10949
11005 11003 11002 11000 10999 10997 10995 10993 10992 10990 10989 10988 10987 10985 10984 10981 10979 10977 10975 10973 10970 10967 10964 10960 10955 10952 10951 10950 10950 10950 10950 10950 10950 10950 10950 10950 10950 10951 10951 10951 10952 10953 10954 10955 10956 10957 10957 10958 10959 10959 10959 10960 10960 10960 10961 10961 10962 10962 10962 10963 10964 10964 10964 10964 10964 10965 10965 10965 10965 10965 10964 10963 10962 10962 10961 10961 10960 10959 10958 10957 10956 10954 10953 10951 10950
11006 11005 11004 11002 11001 10999 10997 10995 10994 10992 10991 10990 10988 10987 10985 10983 10981 10979 10977 10975 10973 10970 10967 10963 10959 10957 10955 10954 10953 10953 10953 10952 10952 10951 10951 10951 10952 10952 10952 10953 10953 10954 10955 10956 10956 10957 10957 10958 10959 10959 10960 10960 10961 10961 10962 10962 10963 10963 10963 10964 10965 10965 10965 10965 10965 10966 10966 10966 10966 10965 10965 10964 10963 10962 10962 10962 10961 10960 10959 10958 10957 10955 10953 10952 10951
11008 11007 11005 11004 11003 11001 11000 10998 10996 10994 10993 10992 10990 10989 10987 10985 10984 10982 10980 10978 10975 10973 10970 10967 10964 10961 10959 10958 10957 10956 10956 10955 10955 10954 10953 10954 10954 10954 10954 10955 10955 10955 10956 10957 10957 10957 10958 10959 10959 10960 10960 10961 10962 10963 10963 10964 10964 10964 10965 10965 10966 10966 10966 10966 10966 10967 10967 10967 10966 10966 10965 10965 10964 10963 10963 10963 10962 10961 10960 10959 10957 10956 10954 10953 10951
11010 11009 11007 11006 11005 11003 11002 11000 10998 10996 10995 10994 10992 10991 10989 10987 10986 10984 10982 10980 10978 10976 10973 10971 10968 10965 10964 10962 10961 10960 10959 10958 10958 10957 10956 10956 10957 10957 10957 10957 10957 10957 10958 10958 10958 10959 10959 10960 10961 10961 10962 10962 10963 10964 10965 10965 10966 10966 10966 10967 10967 10967 10967 10967 10967 10967 10967 10967 10967 10967 10966 10965 10965 10965 10964 10964 10963 10963 10961 10960 10958 10957 10955 10953 10952
11012 11010 11009 11008 11006 11005 11004 11002 11000 10999 10997 10996 10994 10993 10991 10990 10988 10986 10985 10983 10981 10979 10976 10974 10972 10969 10967 10966 10965 10964 10963 10962 10961 10960 10959 10959 10959 10960 10960 10959 10959 10959 10960 10960 10960 10961 10961 10962 10962 10963 10963 10964 10965 10965 10966 10967 10967 10968 10968 10968 10968 10968 10968 10968 10968 10968 10968 10968 10968 10968 10967 10966 10966 10966 10966 10965 10965 10964 10963 10961 10959 10958 10956 10954 10953
11013 11012 11011 11009 11008 11007 11005 11004 11003 11001 11000 10998 10997 10995 10993 10992 10990 10989 10987 10985 10984 10982 10979 10977 10975 10973 10971 10970 10969 10967 10966 10965 10964 10963 10962 10962 10962 10962 10962 10962 10962 10962 10962 10962 10962 10963 10964 10964 10965 10965 10965 10966 10966 10967 10967 10968 10969 10969 10970 10969 10969 10969 10969 10969 10969 10969 10969 10969 10969 10969 10968 10967 10967 10967 10967 10967 10966 10965 10964 10962 10960 10959 10957 10955 10954
11014 11013 11012 11011 11010 11008 11007 11006 11005 11003 11002 11000 10999 10998 10996 10994 10993 10991 10990 10988 10986 10985 10982 10980 10978 10977 10975 10973 10972 10971 10970 10968 10967 10966 10965 10965 10965 10965 10966 10966 10966 10965 10965 10965 10965 10965 10966 10966 10967 10968 10968 10968 10969 10969 10970 10970 10971 10971 10971 10970 10970 10970 10970 10970 10970 10970 10970 10970 10970 10970 10969 10968 10968 10968 10968 10968 10967 10966 10965 10963 10961 10960 10958 10956 10954
11015 11014 11013 11012 11011 11010 11009 11007 11006 11005 11004 11002 11001 11000 10998 10997 10995 10994 10992 10990 10989 10987 10985 10983 10981 10980 10978 10977 10976 10974 10973 10972 10971 10970 10969 10968 10968 10969 10969 10969 10969 10969 10968 10968 10968 10968 10968 10969 10970 10970 10971 10971 10971 10972 10972 10973 10973 10972 10972 10972 10971 10971 10971 10972 10972 10971 10971 10971 10971 10971 10970 10969 10969 10969 10969 10969 10968 10967 10966 10964 10963 10961 10959 10957 10956
11016 11016 11015 11014 11013 11012 11010 11009 11008 11007 11005 11004 11003 11002 11001 10999 10998 10996 10994 10993 10991 10989 10988 10986 10985 10983 10982 10980 10979 10978 10977 10976 10975 10974 10973 10972 10972 10972 10972 10972 10972 10971 10971 10971 10971 10971 10971 10972 10972 10973 10973 10974 10974 10974 10975 10975 10974 10974 10974 10973 10973 10973 10973 10973 10973 10973 10972 10972 10972 10972 10971 10970 10970 10970 10970 10969 10969 10968 10966 10965 10964 10962 10961 10959 10957
11017 11017 11016 11015 11014 11013 11012 11011 11009 11008 11007 11006 11005 11004 11003 11001 11000 10999 10997 10995 10993 10992 10990 10989 10988 10987 10985 10984 10982 10981 10980 10979 10978 10977 10976 10976 10975 10975 10975 10975 10975 10974 10974 10974 10975 10975 10975 10975 10975 10975 10976 10976 10976 10977 10977 10977 10976 10976 10975 10975 10974 10974 10974 10974 10974 10974 10974 10973 10973 10973 10972 10971 10971 10971 10971 10970 10969 10968 10967 10966 10965 10963 10962 10960 10958
11018 11018 11018 11017 11015 11014 11013 11012 11011 11010 11009 11008 11007 11006 11005 11004 11003 11001 10999 10998 10996 10994 10993 10992 10991 10990 10988 10987 10985 10984 10983 10982 10981 10981 10980 10979 10979 10979 10978 10978 10978 10978 10977 10977 10977 10978 10978 10978 10978 10978 10978 10978 10979 10979 10979 10978 10978 10977 10977 10976 10976 10976 10976 10976 10975 10975 10975 10975 10974 10974 10974 10972 10972 10972 10971 10971 10970 10969 10968 10967 10966 10965 10963 10962 10960
11020 11019 11019 11018 11017 11016 11015 11014 11013 11011 11010 11009 11008 11007 11006 11006 11005 11003 11002 11000 10998 10996 10995 10994 10993 10993 10992 10990 10989 10987 10986 10985 10984 10983 10983 10983 10983 10982 10982 10981 10981 10981 10981 10980 10980 10980 10980 10981 10981 10981 10981 10981 10980 10980 10980 10980 10979 10979 10978 10977 10977 10977 10977 10977 10977 10976 10976 10976 10976 10975 10975 10974 10973 10973 10973 10972 10971 10970 10969 10968 10967 10966 10965 10963 10961
11021 11020 11020 11019 11018 11017 11016 11015 11014 11013 11012 11011 11010 11009 11008 11007 11006 11005 11004 11003 11000 10999 10998 10997 10996 10995 10994 10993 10992 10990 10989 10988 10987 10986 10986 10986 10986 10985 10985 10985 10984 10984 10983 10983 10983 10983 10983 10983 10983 10983 10983 10982 10982 10982 10982 10981 10981 10980 10980 10979 10979 10978 10978 10978 10978 10977 10977 10977 10977 10977 10976 10975 10974 10974 10974 10973 10972 10971 10970 10969 10968 10967 10966 10964 10963
11023 11022 11021 11020 11019 11018 11017 11016 11015 11014 11013 11012 11011 11010 11009 11009 11008 11007 11006 11005 11003 11001 11000 10999 10999 10998 10997 10996 10995 10993 10992 10991 10990 10989 10989 10989 10988 10988 10988 10988 10987 10987 10986 10986 10986 10985 10985 10985 10985 10985 10985 10984 10984 10984 10983 10983 10982 10982 10981 10981 10980 10980 10980 10980 10979 10979 10978 10978 10978 10978 10977 10976 10976 10975 10975 10974 10973 10972 10971 10970 10969 10968 10967 10966 10965
11024 11023 11022 11022 11020 11019 11018 11017 11017 11015 11014 11013 11012 11011 11011 11010 11009 11009 11008 11007 11005 11004 11003 11002 11001 11000 11000 10999 10998 10996 10995 10994 10993 10992 10992 10991 10991 10991 10990 10990 10989 10989 10989 10989 10988 10988 10988 10988 10987 10987 10986 10986 10986 10985 10985 10984 10984 10983 10983 10982 10982 10981 10981 10981 10980 10980 10980 10980 10980 10979 10978 10977 10977 10977 10976 10975 10974 10973 10973 10972 10971 10970 10968 10967 10966
11024 11024 11024 11023 11022 11021 11020 11019 11018 11017 11016 11015 11014 11013 11012 11011 11011 11010 11010 11008 11007 11006 11005 11004 11003 11003 11002 11001 11000 10999 10998 10997 10996 10995 10994 10994 10993 10993 10992 10992 10991 10991 10991 10991 10991 10991 10990 10990 10990 10989 10989 10988 10988 10987 10986 10986 10985 10984 10984 10984 10983 10982 10982 10982 10981 10981 10981 10981 10981 10980 10979 10979 10978 10978 10978 10977 10976 10975 10974 10973 10972 10971 10970 10969 10967
11025 11025 11024 11024 11023 11022 11021 11020 11019 11019 11017 11016 11016 11015 11014 11013 11012 11012 11011 11010 11009 11009 11008 11006 11005 11004 11004 11003 11002 11002 11001 11000 10999 10998 10997 10996 10996 10995 10994 10994 10994 10993 10993 10993 10993 10993 10992 10992 10992 10992 10991 10990 10989 10989 10988 10987 10987 10986 10985 10985 10985 10984 10983 10983 10983 10982 10982 10982 10982 10981 10981 10980 10980 10979 10979 10978 10977 10976 10975 10974 10973 10972 10971 10970 10969
11025 11025 11025 11024 11024 11023 11022 11021 11020 11020 11019 11018 11017 11016 11015 11014 11014 11013 11012 11012 11011 11011 11010 11009 11007 11007 11006 11005 11005 11004 11003 11003 11002 11001 11000 10999 10998 10997 10997 10996 10996 10996 10996 10995 10995 10995 10994 10994 10994 10994 10993 10992 10991 10990 10990 10989 10988 10987 10987 10986 10986 10985 10985 10985 10985 10984 10983 10983 10982 10982 10982 10981 10981 10981 10980 10980 10979 10978 10976 10975 10974 10973 10973 10971 10970
11026 11026 11025 11025 11025 11024 11024 11023 11021 11021 11020 11019 11018 11017 11016 11015 11014 11014 11013 11013 11013 11013 11012 11011 11010 11009 11008 11007 11007 11006 11006 11005 11005 11004 11003 11002 11001 11000 10999 10999 10998 10998 10998 10997 10997 10997 10996 10996 10996 10995 10994 10993 10993 10992 10991 10991 10990 10989 10988 10987 10987 10987 10986 10986 10986 10986 10985 10984 10984 10983 10983 10983 10982 10982 10981 10981 10980 10979 10978 10977 10975 10975 10974 10973 10972
11026 11026 11026 11026 11026 11025 11025 11024 11022 11022 11021 11020 11019 11018 11017 11017 11016 11015 11015 11015 11015 11014 11014 11013 11012 11011 11010 11009 11009 11009 11008 11008 11007 11007 11006 11005 11003 11002 11002 11001 11001 11000 11000 10999 10999 10998 10998 10998 10997 10997 10996 10995 10994 10993 10993 10992 10991 10991 10990 10989 10988 10988 10988 10987 10987 10987 10986 10985 10985 10985 10984 10984 10983 10983 10982 10982 10981 10980 10979 10978 10977 10976 10975 10974 10973
11026 11026 11026 11026 11026 11026 11025 11024 11023 11023 11022 11021 11020 11019 11019 11018 11017 11016 11016 11016 11016 11015 11015 11014 11014 11013 11012 11011 11011 11011 11010 11010 11009 11009 11008 11007 11006 11005 11005 11004 11004 11003 11002 11001 11001 11000 11000 11000 10999 10998 10997 10996 10995 10995 10994 10994 10993 10992 10991 10991 10990 10989 10989 10988 10988 10988 10987 10987 10986 10986 10986 10985 10985 10984 10983 10982 10982 10981 10980 10979 10978 10977 10976 10975 10974
11025 11026 11026 11026 11026 11026 11026 11025 11024 11023 11023 11022 11021 11021 11020 11019 11018 11018 11017 11017 11016 11016 11016 11016 11015 11015 11014 11013 11013 11012 11012 11012 11011 11011 11010 11010 11009 11008 11007 11007 11006 11005 11004 11004 11003 11002 11002 11002 11001 11000 10999 10998 10997 10996 10996 10995 10995 10994 10993 10992 10991 10991 10990 10990 10989 10989 10988 10988 10988 10987 10987 10987 10986 10985 10984 10983 10983 10982 10981 10980 10979 10978 10977 10976 10975
11023 11024 11025 11026 11026 11026 11027 11026 11026 11025 11024 11023 11022 11022 11021 11020 11020 11019 11018 11018 11017 11017 11017 11017 11017 11016 11016 11015 11014 11014 11014 11013 11013 11013 11012 11012 11011 11010 11010 11009 11008 11008 11007 11006 11005 11005 11004 11003 11003 11002 11001 11000 10999 10998 10998 10997 10996 10996 10995 10994 10993 10992 10992 10991 10991 10990 10989 10989 10989 10988 10988 10988 10987 10986 10985 10984 10984 10983 10982 10981 10980 10979 10978 10977 10976